• In Österreich
  • Länderverzeichnis
  • Für 7 Tage
  • Wassertemperatur
  • Satellitenkarten
  • Wetterkarte
  • News
  • Widgets
  • user-avatar
    Anmelden

    Stündliche Wetter Chechelivka

    Heute, 20 August, Montag

    Zeit Temperatur Niederschläge Wind Luftdruck Luftfeuchtigkeit
    00:00 +20°C° 0 mm 2 m/S 744 mmHg 80%
    01:00 +20°C° 0 mm 2 m/S 744 mmHg 80%
    02:00 +19°C° 0 mm 2 m/S 743 mmHg 81%
    03:00 +19°C° 0 mm 2 m/S 743 mmHg 81%
    04:00 +19°C° 0 mm 2 m/S 743 mmHg 82%
    05:00 +18°C° 0 mm 2 m/S 743 mmHg 82%
    06:00 +20°C° 0 mm 2 m/S 743 mmHg 77%
    07:00 +21°C° 0 mm 2 m/S 743 mmHg 73%
    08:00 +24°C° 0 mm 2 m/S 744 mmHg 68%
    09:00 +25°C° 0 mm 2 m/S 744 mmHg 63%
    10:00 +27°C° 0 mm 2 m/S 744 mmHg 57%
    11:00 +28°C° 0 mm 1 m/S 744 mmHg 52%
    12:00 +29°C° 0 mm 1 m/S 743 mmHg 49%
    13:00 +30°C° 0 mm 1 m/S 743 mmHg 46%
    14:00 +30°C° 0 mm 1 m/S 743 mmHg 43%
    15:00 +30°C° 0 mm 1 m/S 742 mmHg 44%
    16:00 +30°C° 0 mm 1 m/S 742 mmHg 45%
    17:00 +30°C° 0 mm 1 m/S 742 mmHg 46%
    18:00 +28°C° 0 mm 1 m/S 742 mmHg 51%
    19:00 +26°C° 0 mm 1 m/S 742 mmHg 55%
    20:00 +25°C° 0 mm 1 m/S 742 mmHg 59%
    21:00 +24°C° 0 mm 1 m/S 742 mmHg 62%
    22:00 +23°C° 0 mm 1 m/S 742 mmHg 64%
    23:00 +23°C° 0 mm 1 m/S 742 mmHg 67%

    Morgen, 21 August, Dienstag

    Zeit Temperatur Niederschläge Wind Luftdruck Luftfeuchtigkeit
    00:00 +22°C° 0 mm 1 m/S 742 mmHg 68%
    01:00 +22°C° 0 mm 1 m/S 742 mmHg 69%
    02:00 +21°C° 0 mm 1 m/S 741 mmHg 71%
    03:00 +21°C° 0 mm 1 m/S 741 mmHg 71%
    04:00 +19°C° 0 mm 0 m/S 741 mmHg 72%
    05:00 +19°C° 0 mm 0 m/S 741 mmHg 73%
    06:00 +22°C° 0 mm 1 m/S 741 mmHg 69%
    07:00 +24°C° 0 mm 1 m/S 742 mmHg 64%
    08:00 +26°C° 0 mm 1 m/S 742 mmHg 60%
    09:00 +27°C° 0 mm 2 m/S 742 mmHg 56%
    10:00 +28°C° 0 mm 2 m/S 742 mmHg 51%
    11:00 +29°C° 0 mm 2 m/S 742 mmHg 47%
    12:00 +30°C° 0 mm 3 m/S 742 mmHg 45%
    13:00 +30°C° 0 mm 3 m/S 742 mmHg 44%
    14:00 +31°C° 0 mm 3 m/S 741 mmHg 42%
    15:00 +30°C° 0 mm 3 m/S 741 mmHg 47%
    16:00 +29°C° 0 mm 3 m/S 741 mmHg 51%
    17:00 +29°C° 0 mm 4 m/S 741 mmHg 55%
    18:00 +27°C° 0 mm 3 m/S 741 mmHg 62%
    19:00 +25°C° 0 mm 3 m/S 742 mmHg 68%
    20:00 +24°C° 0 mm 3 m/S 742 mmHg 74%
    21:00 +22°C° 0 mm 3 m/S 742 mmHg 75%
    22:00 +21°C° 0 mm 3 m/S 743 mmHg 77%
    23:00 +20°C° 0 mm 3 m/S 743 mmHg 79%

    übermorgen, 22 August, Mittwoch

    Zeit Temperatur Niederschläge Wind Luftdruck Luftfeuchtigkeit
    00:00 +19°C° 0 mm 3 m/S 743 mmHg 79%
    01:00 +19°C° 0 mm 3 m/S 743 mmHg 80%
    02:00 +18°C° 0 mm 3 m/S 743 mmHg 80%
    03:00 +17°C° 0 mm 3 m/S 744 mmHg 81%
    04:00 +17°C° 0 mm 3 m/S 744 mmHg 82%
    05:00 +16°C° 0 mm 3 m/S 744 mmHg 83%
    06:00 +18°C° 0 mm 3 m/S 745 mmHg 79%
    07:00 +19°C° 0 mm 3 m/S 745 mmHg 74%
    08:00 +20°C° 0 mm 4 m/S 745 mmHg 70%
    09:00 +21°C° 0 mm 4 m/S 746 mmHg 64%
    10:00 +23°C° 0 mm 4 m/S 746 mmHg 57%
    11:00 +25°C° 0 mm 4 m/S 746 mmHg 51%
    12:00 +25°C° 0 mm 4 m/S 746 mmHg 49%
    13:00 +26°C° 0 mm 4 m/S 746 mmHg 47%
    14:00 +26°C° 0 mm 4 m/S 745 mmHg 45%
    15:00 +26°C° 0 mm 4 m/S 745 mmHg 47%
    16:00 +25°C° 0 mm 4 m/S 745 mmHg 49%
    17:00 +25°C° 0 mm 4 m/S 745 mmHg 51%
    18:00 +22°C° 0 mm 3 m/S 746 mmHg 55%
    19:00 +21°C° 0 mm 3 m/S 746 mmHg 60%
    20:00 +19°C° 0 mm 2 m/S 746 mmHg 65%
    21:00 +18°C° 0 mm 2 m/S 746 mmHg 66%
    22:00 +18°C° 0 mm 2 m/S 746 mmHg 66%
    23:00 +17°C° 0 mm 2 m/S 746 mmHg 67%

    23 August, Donnerstag

    Zeit Temperatur Niederschläge Wind Luftdruck Luftfeuchtigkeit
    00:00 +16°C° 0 mm 2 m/S 746 mmHg 68%
    01:00 +16°C° 0 mm 2 m/S 746 mmHg 68%
    02:00 +15°C° 0 mm 2 m/S 746 mmHg 68%
    03:00 +15°C° 0 mm 2 m/S 746 mmHg 69%
    04:00 +14°C° 0 mm 2 m/S 746 mmHg 70%
    05:00 +14°C° 0 mm 2 m/S 746 mmHg 71%
    06:00 +15°C° 0 mm 2 m/S 746 mmHg 68%
    07:00 +17°C° 0 mm 2 m/S 746 mmHg 64%
    08:00 +19°C° 0 mm 3 m/S 746 mmHg 61%
    09:00 +20°C° 0 mm 3 m/S 746 mmHg 55%
    10:00 +22°C° 0 mm 3 m/S 746 mmHg 50%
    11:00 +24°C° 0 mm 3 m/S 746 mmHg 44%
    12:00 +25°C° 0 mm 3 m/S 746 mmHg 42%
    13:00 +26°C° 0 mm 3 m/S 745 mmHg 40%
    14:00 +26°C° 0 mm 3 m/S 745 mmHg 38%
    15:00 +26°C° 0 mm 3 m/S 745 mmHg 39%
    16:00 +26°C° 0 mm 3 m/S 744 mmHg 41%
    17:00 +26°C° 0 mm 3 m/S 744 mmHg 42%
    18:00 +24°C° 0 mm 3 m/S 744 mmHg 47%
    19:00 +21°C° 0 mm 3 m/S 744 mmHg 51%
    20:00 +19°C° 0 mm 3 m/S 744 mmHg 55%
    21:00 +18°C° 0 mm 3 m/S 744 mmHg 56%
    22:00 +18°C° 0 mm 3 m/S 744 mmHg 56%
    23:00 +17°C° 0 mm 3 m/S 744 mmHg 57%

    24 August, Freitag

    Zeit Temperatur Niederschläge Wind Luftdruck Luftfeuchtigkeit
    00:00 +17°C° 0 mm 3 m/S 743 mmHg 57%
    01:00 +16°C° 0 mm 3 m/S 743 mmHg 57%
    02:00 +16°C° 0 mm 3 m/S 743 mmHg 57%
    03:00 +14°C° 0 mm 3 m/S 743 mmHg 58%
    04:00 +14°C° 0 mm 3 m/S 743 mmHg 58%
    05:00 +15°C° 0 mm 2 m/S 743 mmHg 58%
    06:00 +17°C° 0 mm 3 m/S 743 mmHg 56%
    07:00 +18°C° 0 mm 3 m/S 743 mmHg 53%
    08:00 +20°C° 0 mm 3 m/S 743 mmHg 50%
    09:00 +22°C° 0 mm 3 m/S 743 mmHg 46%
    10:00 +25°C° 0 mm 3 m/S 743 mmHg 41%
    11:00 +27°C° 0 mm 3 m/S 742 mmHg 37%
    12:00 +28°C° 0 mm 3 m/S 742 mmHg 35%
    13:00 +29°C° 0 mm 3 m/S 742 mmHg 34%
    14:00 +29°C° 0 mm 3 m/S 741 mmHg 32%
    15:00 +29°C° 0 mm 3 m/S 741 mmHg 35%
    16:00 +29°C° 0 mm 2 m/S 741 mmHg 37%
    17:00 +29°C° 0 mm 2 m/S 741 mmHg 39%
    18:00 +27°C° 0 mm 2 m/S 741 mmHg 42%
    19:00 +24°C° 0 mm 3 m/S 740 mmHg 45%
    20:00 +21°C° 0 mm 3 m/S 740 mmHg 48%
    21:00 +21°C° 0 mm 3 m/S 740 mmHg 49%
    22:00 +20°C° 0 mm 3 m/S 740 mmHg 51%
    23:00 +20°C° 0 mm 3 m/S 740 mmHg 52%

    25 August, Samstag

    Zeit Temperatur Niederschläge Wind Luftdruck Luftfeuchtigkeit
    00:00 +19°C° 0 mm 3 m/S 740 mmHg 52%
    01:00 +19°C° 0 mm 3 m/S 740 mmHg 51%
    02:00 +19°C° 0 mm 3 m/S 739 mmHg 51%
    03:00 +18°C° 0 mm 3 m/S 739 mmHg 52%
    04:00 +18°C° 0 mm 2 m/S 739 mmHg 54%
    05:00 +18°C° 0 mm 2 m/S 739 mmHg 55%
    06:00 +20°C° 0 mm 2 m/S 739 mmHg 54%
    07:00 +21°C° 0 mm 2 m/S 739 mmHg 53%
    08:00 +24°C° 0 mm 2 m/S 739 mmHg 52%
    09:00 +26°C° 0 mm 3 m/S 739 mmHg 47%
    10:00 +28°C° 0 mm 3 m/S 739 mmHg 42%
    11:00 +31°C° 0 mm 3 m/S 739 mmHg 37%
    12:00 +31°C° 0 mm 3 m/S 739 mmHg 35%
    13:00 +33°C° 0 mm 3 m/S 739 mmHg 32%
    14:00 +34°C° 0 mm 3 m/S 739 mmHg 30%
    15:00 +31°C° 0 mm 3 m/S 738 mmHg 34%
    16:00 +30°C° 0 mm 3 m/S 738 mmHg 39%
    17:00 +29°C° 0 mm 3 m/S 738 mmHg 43%
    18:00 +28°C° 0 mm 3 m/S 738 mmHg 47%
    19:00 +26°C° 0 mm 3 m/S 738 mmHg 50%
    20:00 +25°C° 0 mm 3 m/S 738 mmHg 53%
    21:00 +24°C° 0 mm 3 m/S 738 mmHg 53%
    22:00 +24°C° 0 mm 2 m/S 738 mmHg 54%
    23:00 +23°C° 0 mm 2 m/S 738 mmHg 55%
    Mehr zeigen